Regional Weather Roundup
Issued by NWS

Home | Current Version | Previous Version | Graphics & Text | Print | Product List | Glossary On
Versions: 1 2 3 4 5 6 7 8 9 10 11 12 13 14 15 16 17 18 19 20 21 22 23 24 25 26 27 28 29 30 31 32 33 34 35 36 37 38 39 40 41 42 43 44 45 46 47 48 49 50
000
ASUS44 KMEG 300110
RWRTN
TENNESSEE HOURLY STATE WEATHER ROUNDUP
NATIONAL WEATHER SERVICE MEMPHIS TN
800 PM CDT FRI APR 29 2016

TNZ002-004-019-021-049-052-054-088>092-300200-
WEST TENNESSEE

CITY           SKY/WX    TMP DP  RH WIND       PRES   REMARKS
MEMPHIS INTL   CLOUDY    65  61  87 SE7       29.85S
NWS MEMPHIS      N/A     63 N/A N/A MISG        N/A
JACKSON        CLOUDY    64  58  80 VRB6      29.89S
DYERSBURG      CLOUDY    64  57  77 SE5         N/A
UNION CITY     PTCLDY    63  61  94 CALM      29.89S
LEXINGTON      CLEAR     63  55  77 SE3       29.91S
$$

TNZ008-025-027-028-033-062-065-066-300200-
NORTH MIDDLE TENNESSEE

CITY           SKY/WX    TMP DP  RH WIND       PRES   REMARKS
NASHVILLE      CLOUDY    66  61  84 SE5       29.97R
CLARKSVILLE    CLOUDY    63  60  90 SE5       29.95S
SMYRNA         CLOUDY    68  61  78 S3        29.99R
COOKEVILLE     CLEAR     66  61  82 CALM      29.99F
CROSSVILLE     CLOUDY    72  49  44 N6        30.03F
$$

TNZ061-075-076-078-094-096-097-300200-
SOUTH MIDDLE TENNESSEE

CITY           SKY/WX    TMP DP  RH WIND       PRES   REMARKS
FAYETTEVILLE   CLOUDY    63  61  94 S10       30.02R
TULLAHOMA      PTCLDY    64  61  88 SW3       30.02S
WINCHESTER     PTCLDY    70  57  64 CALM      30.02F
MCMINNVILLE    CLEAR     68  59  73 CALM      30.00F
COLUMBIA         N/A    N/A N/A N/A CALM      29.95F
SHELBYVILLE    PTCLDY    64  63  94 SE5       30.00S
$$

TNZ017-018-042-046-047-300200-
NORTHEAST TENNESSEE

CITY           SKY/WX    TMP DP  RH WIND       PRES   REMARKS
TRI CITIES     CLOUDY    70  51  51 CALM      30.02R
$$

TNZ012-013-036-069-073-074-300200-
CENTRAL EAST TENNESSEE

CITY           SKY/WX    TMP DP  RH WIND       PRES   REMARKS
KNOXVILLE      CLOUDY    72  57  59 CALM      29.99R
OAK RIDGE      CLOUDY    72  58  61 CALM      30.01R
MORRISTOWN     PTCLDY    70  55  60 CALM      30.01R
$$

TNZ083-085-099-300200-
SOUTHEAST TENNESSEE

CITY           SKY/WX    TMP DP  RH WIND       PRES   REMARKS
CHATTANOOGA    CLOUDY    75  56  51 W3        29.99R
$$

SKY/WX REPORTED AS FAIR MEANS FEW OR NO CLOUDS BELOW
12 THOUSAND FEET.





USA.gov is the U.S. government's official web portal to all federal, state and local government web resources and services.